This demonstration page uses our WeatherBlox Daily Observations layout. Learn more.

Left ArrowRight Arrow

Hourly Observations for May 4, 2018

Temp ( °F °C ) Dew Point ( °F °C ) Humidity (%) Winds ( mph kmh ) Pressure ( in mb ) Visibility ( mi km ) Precip ( " mm )
12:53 am 00:53 Clear 70 21.1 61 16.1 73 73 S 3 6 29.95 1014 10 16 0.00 0.00
1:53 am 01:53 Clear 68 20 62 16.7 81 81 Calm 29.96 1014 10 16 0.00 0.00
2:53 am 02:53 Clear 65 18.3 61 16.1 87 87 E 3 6 29.94 1014 10 16 0.00 0.00
3:53 am 03:53 Clear 63 17.2 60 15.6 90 90 Calm 29.93 1014 10 16 0.00 0.00
4:53 am 04:53 Cloudy 70 21.1 60 15.6 71 71 SW 6 9 29.93 1014 10 16 0.00 0.00
5:53 am 05:53 Cloudy 73 22.8 58 14.4 59 59 SW 10 17 29.92 1013 10 16 0.00 0.00
6:53 am 06:53 Cloudy with Light Rain 70 21.1 60 15.6 71 71 VRB 6 9 29.93 1014 9 14 0.00 0.03
7:53 am 07:53 Cloudy 72 22.2 60 15.6 66 66 WSW 13 20 29.94 1014 10 16 0.00 0.03
8:53 am 08:53 Cloudy 73 22.8 61 16.1 66 66 WSW 15 24 29.95 1014 10 16 0.00 0.00
9:53 am 09:53 Mostly Sunny 75 23.9 61 16.1 62 62 WSW 13 20 29.94 1014 10 16 0.00 0.00
10:53 am 10:53 Partly Cloudy 76 24.4 63 17.2 64 64 WSW 13 20 29.92 1013 10 16 0.00 0.00
11:53 am 11:53 Partly Cloudy 80 26.7 63 17.2 56 56 WSW 16 26 29.91 1013 10 16 0.00 0.00
12:53 pm 12:53 Mostly Sunny 80 26.7 61 16.1 52 52 WSW 21 33 29.92 1013 10 16 0.00 0.00
1:53 pm 13:53 Partly Cloudy 78 25.6 61 16.1 56 56 WSW 17 28 29.93 1014 10 16 0.00 0.00
2:53 pm 14:53 Mostly Sunny 79 26.1 60 15.6 52 52 WSW 12 19 29.93 1014 10 16 0.00 0.00
3:53 pm 15:53 Mostly Sunny 80 26.7 59 15 49 49 WSW 13 20 29.92 1013 10 16 0.00 0.00
4:49 pm 16:49 Mostly Cloudy with Nearby Thunderstorms 73 23 59 15 61 61 WNW 25 41 29.94 1014 9 14 0.00 0.03
4:53 pm 16:53 Mostly Cloudy with Nearby Thunderstorms 71 21.7 60 15.6 68 68 WNW 13 20 29.94 1014 9 14 0.01 0.25
5:10 pm 17:10 Cloudy with Rain 68 20 61 16.1 78 78 W 15 24 29.97 1015 3 5 0.04 1.02
5:36 pm 17:36 Cloudy with Heavy Rain 66 18.9 63 17.2 90 90 SW 8 13 29.97 1015 2 3 0.09 2.29
5:43 pm 17:43 Cloudy with Light Rain 66 18.9 63 17.2 90 90 SW 7 11 29.97 1015 3 5 0.09 2.29
5:53 pm 17:53 Cloudy with Light Rain 67 19.4 63 17.2 87 87 SW 7 11 29.97 1015 9 14 0.09 2.29
6:53 pm 18:53 Sunny 68 20 64 17.8 87 87 WSW 3 6 29.98 1015 10 16 0.01 0.25
7:53 pm 19:53 Sunny 68 20 64 17.8 87 87 Calm 29.99 1016 10 16 0.00 0.00
8:53 pm 20:53 Clear 65 18.3 64 17.8 97 97 Calm 30.02 1017 8 13 0.00 0.00
9:53 pm 21:53 Clear 64 17.8 57 13.9 78 78 Calm 30.06 1018 10 16 0.00 0.00
10:53 pm 22:53 Clear 60 15.6 58 14.4 93 93 Calm 30.08 1019 10 16 0.00 0.00
11:53 pm 23:53 Clear 58 14.4 57 13.9 97 97 Calm 30.08 1019 10 16 0.00 0.00

Powered by AerisWeather